Regional Weather Roundup
Issued by NWS Binghamton, NY

Home | Current Version | Previous Version | Text Only | Print | Product List | Glossary On
Versions: 1 2 3 4 5 6 7 8 9 10 11 12 13 14 15 16 17 18 19 20 21 22 23 24 25 26 27 28 29 30 31 32 33 34 35 36 37 38 39 40 41 42 43 44 45 46 47 48 49 50
000
ASUS41 KBGM 061710
RWRBGM
RWRBGM
BINGHAMTON REGIONAL WEATHER ROUNDUP
NATIONAL WEATHER SERVICE BINGHAMTON NY
1200 PM EST FRI MAR 06 2015

Note: "fair" indicates few or no clouds below 12,000 feet with no
significant weather and/or obstructions to visibility.

* = Station(s) that does not report precipitation, such as rain,
snow, etc, also no thunder or fog.

!NYZ009-015>018-022>025-036-037-044>046-055>057-062-061800
...CENTRAL NEW YORK...

CITY           SKY/WX    TMP DP  RH WIND       PRES   REMARKS
BINGHAMTON     SUNNY     14  -1  51 CALM      30.38F
CORTLAND       FAIR      16   5  62 W3        30.44F
DANSVILLE      SUNNY     18   0  45 SE9       30.45F WCI   7
ELMIRA         SUNNY     16  -1  47 SW7       30.46F WCI   6
ITHACA         SUNNY     14  -1  51 CALM      30.45F
MONTICELLO     SUNNY     16   1  53 SW9       30.42R WCI   4
NORWICH        SUNNY     16   1  53 CALM      30.45F
ONEONTA        SUNNY     12  -2  52 N5        30.37S WCI   4
PENN YAN       SUNNY     16   1  51 S7        30.44F WCI   6
ROME           SUNNY     12   1  61 W5        30.52F WCI   4
SIDNEY         SUNNY     19   5  53 S5        30.45F WCI  13
SYRACUSE       PTSUNNY   17   5  59 SW9       30.49F WCI   6
$$

!PAZ038>040-043-044-047-048-072-061800
...NORTHEAST PENNSYLVANIA...

CITY           SKY/WX    TMP DP  RH WIND       PRES   REMARKS
HAZLETON       SUNNY     14   1  57 NW3       30.43F
SCRANTON       SUNNY     17   1  49 CALM      30.46F
TOWANDA*       SUNNY     18   0  45 NE3       30.49F
$$
&&
KEY
WCI = WIND CHILL INDEX
VSB = VISIBILITY
HX  = HEAT INDEX
$$



USA.gov is the U.S. government's official web portal to all federal, state and local government web resources and services.